DAL452 KATL-KJFK

Flight info

Callsign DAL452
Flight time N/A
Altitude 33000
Route PHIIL3 HRTWL Q64 SAWED Q108 SIE CAMRN5
Aircraft A20N/M-SDE2E3FGHIRWXY/LB1

Departure

Time 2026-05-06 23:55
Airport Hartsfield Jackson Atlanta International Airport (KATL)

Arrival

Time N/A
Airport John F. Kennedy International Airport (KJFK)
Time Latitude Longitude Altitude Speed Heading
2026-05-06 23:19 33.64065 -84.42882 1035 ft 0 kts 268°
2026-05-06 23:40 33.64065 -84.42864 1035 ft 4 kts 265°
2026-05-06 23:40 33.64070 -84.42832 1035 ft 4 kts 247°
2026-05-06 23:41 33.64084 -84.42810 1035 ft 4 kts 187°
2026-05-06 23:41 33.64089 -84.42809 1035 ft 0 kts 180°
2026-05-06 23:49 33.64081 -84.42809 1035 ft 5 kts 180°
2026-05-06 23:50 33.64019 -84.42809 1035 ft 12 kts 180°
2026-05-06 23:50 33.63811 -84.42809 1035 ft 18 kts 180°
2026-05-06 23:50 33.63703 -84.42804 1035 ft 12 kts 163°
2026-05-06 23:51 33.63661 -84.42716 1035 ft 14 kts 102°
2026-05-06 23:51 33.63657 -84.42590 1035 ft 16 kts 90°
2026-05-06 23:51 33.63656 -84.42442 1035 ft 19 kts 90°
2026-05-06 23:51 33.63656 -84.42276 1035 ft 18 kts 90°
2026-05-06 23:52 33.63634 -84.42160 1036 ft 15 kts 120°
2026-05-06 23:52 33.63586 -84.42036 1035 ft 17 kts 99°
2026-05-06 23:52 33.63585 -84.41935 1035 ft 19 kts 90°
2026-05-06 23:52 33.63583 -84.41703 1035 ft 22 kts 89°
2026-05-06 23:53 33.63584 -84.41509 1034 ft 24 kts 89°
2026-05-06 23:53 33.63583 -84.41301 1034 ft 25 kts 91°
2026-05-06 23:53 33.63584 -84.41167 1035 ft 24 kts 79°
2026-05-06 23:53 33.63584 -84.40993 1035 ft 16 kts 91°
2026-05-06 23:54 33.63528 -84.40911 1035 ft 13 kts 174°
2026-05-06 23:54 33.63475 -84.40972 1036 ft 10 kts 261°
2026-05-06 23:54 33.63472 -84.40991 1035 ft 0 kts 264°
2026-05-06 23:55 33.63465 -84.41462 1035 ft 96 kts 271°
2026-05-06 23:55 33.63468 -84.42155 1035 ft 148 kts 270°
2026-05-06 23:55 33.63474 -84.43563 1486 ft 176 kts 269°
2026-05-06 23:55 33.63459 -84.45088 2276 ft 190 kts 268°
2026-05-06 23:56 33.63380 -84.46682 3113 ft 201 kts 260°
2026-05-06 23:56 33.62955 -84.48365 3758 ft 222 kts 244°
2026-05-06 23:56 33.62230 -84.50097 4422 ft 243 kts 243°
2026-05-06 23:56 33.61438 -84.52001 5062 ft 265 kts 243°
2026-05-06 23:57 33.60609 -84.54023 5945 ft 273 kts 244°
2026-05-06 23:57 33.59743 -84.56074 6922 ft 278 kts 237°
2026-05-06 23:57 33.58388 -84.57726 7824 ft 283 kts 211°
2026-05-06 23:57 33.56525 -84.58512 8690 ft 288 kts 186°
2026-05-06 23:58 33.54531 -84.58571 9484 ft 294 kts 180°
2026-05-06 23:58 33.52474 -84.58535 9865 ft 297 kts 179°
2026-05-06 23:58 33.50400 -84.58479 10022 ft 297 kts 176°
2026-05-06 23:58 33.48397 -84.57837 10316 ft 302 kts 152°
2026-05-06 23:59 33.46772 -84.56236 11130 ft 304 kts 128°
2026-05-06 23:59 33.45812 -84.53974 11923 ft 309 kts 104°
2026-05-06 23:59 33.45605 -84.51430 12579 ft 317 kts 91°
2026-05-06 23:59 33.45597 -84.48697 12802 ft 339 kts 90°
2026-05-07 00:00 33.45618 -84.45802 12997 ft 359 kts 89°
2026-05-07 00:00 33.45632 -84.42753 13428 ft 368 kts 90°
2026-05-07 00:00 33.45632 -84.39673 13863 ft 372 kts 90°
2026-05-07 00:00 33.45625 -84.36571 14006 ft 373 kts 89°
2026-05-07 00:01 33.45833 -84.33464 14034 ft 373 kts 81°
2026-05-07 00:01 33.46387 -84.30471 14034 ft 373 kts 73°
2026-05-07 00:01 33.47155 -84.27503 14066 ft 375 kts 73°
2026-05-07 00:01 33.47923 -84.24498 14545 ft 378 kts 73°
2026-05-07 00:02 33.48687 -84.21480 15181 ft 380 kts 73°
2026-05-07 00:02 33.49454 -84.18441 15707 ft 383 kts 73°
2026-05-07 00:02 33.50230 -84.15365 16213 ft 387 kts 73°
2026-05-07 00:02 33.51012 -84.12265 16697 ft 390 kts 73°
2026-05-07 00:03 33.51800 -84.09137 17155 ft 394 kts 73°
2026-05-07 00:03 33.52595 -84.05977 17594 ft 397 kts 73°
2026-05-07 00:03 33.53395 -84.02798 18014 ft 400 kts 73°
2026-05-07 00:03 33.54198 -83.99596 18416 ft 403 kts 73°
2026-05-07 00:04 33.55006 -83.96372 18802 ft 405 kts 73°
2026-05-07 00:04 33.55819 -83.93121 19171 ft 408 kts 73°
2026-05-07 00:04 33.56637 -83.89855 19524 ft 411 kts 73°
2026-05-07 00:04 33.57459 -83.86565 19863 ft 413 kts 73°
2026-05-07 00:05 33.58307 -83.83263 20185 ft 416 kts 71°
2026-05-07 00:05 33.59427 -83.80054 20495 ft 418 kts 65°
2026-05-07 00:05 33.60645 -83.76879 20791 ft 420 kts 65°
2026-05-07 00:05 33.61849 -83.73719 21072 ft 423 kts 65°
2026-05-07 00:06 33.63070 -83.70506 21345 ft 425 kts 65°
2026-05-07 00:06 33.64294 -83.67276 21606 ft 427 kts 65°
2026-05-07 00:06 33.65440 -83.63969 21853 ft 428 kts 71°
2026-05-07 00:06 33.66251 -83.60527 22090 ft 430 kts 78°
2026-05-07 00:07 33.66896 -83.57011 22318 ft 432 kts 77°
2026-05-07 00:07 33.67551 -83.53504 22537 ft 434 kts 77°
2026-05-07 00:07 33.68215 -83.49963 22747 ft 435 kts 77°
2026-05-07 00:07 33.68880 -83.46416 22949 ft 437 kts 77°
2026-05-07 00:08 33.69548 -83.42845 23142 ft 438 kts 77°
2026-05-07 00:08 33.70207 -83.39309 23325 ft 440 kts 77°
2026-05-07 00:08 33.70875 -83.35720 23503 ft 441 kts 77°
2026-05-07 00:08 33.71545 -83.32113 23673 ft 443 kts 77°
2026-05-07 00:09 33.72216 -83.28488 23836 ft 444 kts 77°
2026-05-07 00:09 33.72888 -83.24859 23990 ft 445 kts 77°